User: anonymous   Login
Location: Unspecified
(0.0000°N, 0.0000°E)
Time: 16:32:17
(UTC+00:00)
Language:

SBIRS GEO 4 (USA 282) - Orbit

View from above orbital plane
View from above orbital plane
View from above satellite
View from above satellite

Ground track
Ground track

The orbit data is extracted from the following two-line orbital elements,

1 43162U 18009A   18343.28539943 0.00000000  00000-0  00000-0 0    09
2 43162   6.0294 319.6895 0003511 194.3497 165.6525  1.00270000    07
Epoch (UTC): 09 December 2018 06:50:58
Eccentricity: 0.0003511
inclination: 6.0294°
perigee height: 35772 km
apogee height: 35801 km
right ascension of ascending node: 319.6895°
argument of perigee: 194.3497°
revolutions per day: 1.00270000
mean anomaly at epoch: 165.6525°
orbit number at epoch: 0

The dashed part of the orbit path shows where the satellite is in the earth's shadow,  

DLR